Погода в Орто-Сурте

Россия / Республика Саха (Якутия)     62°34′03″N   125°07′08″E
темп.,
°C
ветер,
м/с
пор.,
м/с
влажн.,
%
обл.,
%
осадки,
мм/ч
давл.,
гПа
погр.,
м
3 марта, ср
ср300:00−36в1110055 0.0 102419
03:00−36св1110061 0.0 102419
06:00−37св1110046 0.0 102419
09:00−36с019757 0.0 102319
12:00−29ссз239171 0.0 1022291
15:00−29с249383 0.0 1021363
18:00−33ссз229794 0.0 102219
21:00−35зсз269894 0.0 1022169
4 марта, чт
чт400:00−33зсз3796100 0.1 1022381
03:00−32зсз3996100 0.2 1021453
06:00−32зсз4995100 0.2 1021569
09:00−32зсз41093100 0.3 1021611
12:00−31зсз5992100 0.1 1022739
15:00−30зсз5992100 0.2 1023826
18:00−30сз4993100 0.1 1025899
21:00−31сз41094100 0.2 1027803
5 марта, пт
пт500:00−33зсз31097100 0.0 1028453
03:00−34зсз31098100 0.1 1029345
06:00−34зсз31197100 0.0 1030460
09:00−34зсз41095100 0.1 1031481
12:00−30зсз3894100 0.0 1031490
15:00−28зсз4892100 0.0 1031572
18:00−30зсз259493 0.0 103194
21:00−32з389646 0.0 1031149
6 марта, сб
сб600:00−34зсз23990 0.0 103040
03:00−35з23990 0.0 103043
06:00−35з23980 0.0 102939
09:00−33з23960 0.0 102896
12:00−26зсз23870 0.0 1027297
15:00−22з12820 0.0 1025428
18:00−27з01920 0.0 102419
21:00−31в11950 0.0 102519
7 марта, вс
вс700:00−32ююв11950 0.0 102419
03:00−32вюв11920 0.0 102419
06:00−33ююв11900 0.0 102419
09:00−30ююв11900 0.0 102440
12:00−22ююв12850 0.0 1023223
15:00−19юв12810 0.0 1022316
18:00−23юв22920 0.0 102120
21:00−26юв23920 0.0 102119